Regional Weather Roundup
Issued by NWS Northern Indiana

Home | Current Version | Previous Version | Text Only | Print | Product List | Glossary Off
Versions: 1 2 3 4 5 6 7 8 9 10 11 12 13 14 15 16 17 18 19 20 21 22 23 24 25 26 27 28 29 30 31 32 33 34 35 36 37 38 39 40 41 42 43 44 45 46 47 48 49 50

000
ASUS43 KIWX 241910
RWRIWX

KIWX WEATHER ROUNDUP
NATIONAL WEATHER SERVICE NORTHERN INDIANA
300 PM EDT FRI MAR 24 2017

NOTE: "FAIR" INDICATES FEW OR NO CLOUDS BELOW 12,000 FEET WITH NO
SIGNIFICANT WEATHER AND/OR OBSTRUCTIONS TO VISIBILITY.

* THESE STATIONS ARE NOT UNDER NWS QUALITY CONTROL. THEY ALSO MAY NOT
  REPORT WEATHER SUCH AS PRECIPITATION OR FOG.

INZ001>027-242000-
NORTHERN INDIANA

CITY           SKY/WX    TMP DP  RH WIND       PRES   REMARKS
GARY*          MOSUNNY   81  41  24 SW20G39   29.92F
VALPARAISO     SUNNY     79  52  38 SW28G40   29.95F
MICHIGAN CITY* SUNNY     79  50  36 SW21G32   29.94F
LAPORTE*       SUNNY     76  53  45 SW22G31   29.95F
KNOX*          SUNNY     75  27  16 SW28G35   29.96F
SOUTH BEND     SUNNY     76  49  38 SW25G39   29.95F
ELKHART*       SUNNY     77  48  36 SW20G28   29.95F
GOSHEN         SUNNY     76  51  41 SW25G35   29.96F
MONTICELLO*    MOSUNNY   75  55  49 SW18G32   29.99F
LOGANSPORT*    MOSUNNY   73  55  53 SW24G31   30.02F
ROCHESTER*     SUNNY     75  55  50 SW21G26   30.00F
WARSAW*        SUNNY     73  54  49 SW14      29.99S
ANGOLA*        SUNNY     73  68  83 SW21      29.96F
FORT WAYNE     MOSUNNY   74  56  53 SW29G35   30.01F
HUNTINGTON*    SUNNY     74  55  51 SW17G28   30.01F
PERU/GRISSOM   SUNNY     75  56  52 SW30G37   30.00F
MARION*        MOSUNNY   74  55  52 SW29      30.04F

$$
INZ028>050-242000-
CENTRAL INDIANA

CITY           SKY/WX    TMP DP  RH WIND       PRES   REMARKS
LAFAYETTE      MOSUNNY   74  57  55 SW22G37   30.01F
KOKOMO*        SUNNY     74  57  55 SW29G36   30.04F
MUNCIE*        MOSUNNY   75  55  49 SW16G30   30.05F
INDIANAPOLIS   PTSUNNY   72  54  53 SW28G37   30.08F

$$
MIZ043>046-050>051-056>058-064>065-071>073-077>080-242000-
SOUTHWEST LOWER MICHIGAN

CITY           SKY/WX    TMP DP  RH WIND       PRES   REMARKS
BATTLE CREEK   SUNNY     76  49  38 SW25G31   29.92F
BENTON HARBOR  SUNNY     77  45  32 SW23G32   29.92F
COLDWATER*     SUNNY     74  50  42 SW18G29   29.95F
HILLSDALE*     SUNNY     72  52  49 SW18G26   29.96F
HOLLAND        PTSUNNY   64  49  57 SW15      29.92F
GRAND RAPIDS   PTSUNNY   68  50  52 W24G32    29.91F
KALAMAZOO      SUNNY     77  45  32 SW22G32   29.92F
STURGIS*       SUNNY     74  53  47 SW18G26   29.95F
THREE RIVERS*  FAIR      76  47  35 W23G32    29.94F

$$
OHZ001>008-015>018-024>025-242000-
NORTHWEST OHIO

CITY           SKY/WX    TMP DP  RH WIND       PRES   REMARKS
WAUSEON*       FAIR      75  54  46 SW26G33   29.98F
DEFIANCE       SUNNY     72  53  51 SW21G30   29.99F
FINDLAY        SUNNY     75  52  44 SW25G33   30.02F
TOLEDO EXPRESS SUNNY     73  52  47 SW24G35   29.98F
TOLEDO METCALF SUNNY     73  54  51 SW24G35   29.99F
LIMA           SUNNY     73  55  53 SW24G32   30.05F

$$
AND FOR LAKE MICHIGAN COASTAL AND OPEN LAKE BUOY OBSERVATIONS

STATION/POSITION TEMP    WIND        PRES    VSBY  WAVE
                 AIR SEA DIR/SP/G                  HT/PER
                 (F)     (DEG/KT/KT) (MB)    (MI)  (FT/S)
CALUMET HARBOR    77     200/ 22/ 31 1011.9F
MICHIGAN CITY     72     210/ 26/ 30   N/A
BURNS HARBOR      73     220/ 18/ 30 1013.9S

$$
&&




USA.gov is the U.S. government's official web portal to all federal, state and local government web resources and services.